CW4896 Weather Reports


time (UTC)temp
F
wind
direction
speed
knots
gust
knots
rain 1hr
in
rain 24hr
in
rain mn
in
humidity
%
barometer
mb
20260505194300 61 277 0.0 1.7 0.00 0.00 0.00 80 1016.6
20260505193300 60 219 0.0 1.7 0.00 0.00 0.00 82 1016.6
20260505192300 60 231 0.0 2.6 0.00 0.00 0.00 82 1016.6
20260505191300 59 234 0.0 1.7 0.00 0.00 0.00 82 1016.6
20260505184300 58 271 0.0 2.6 0.00 0.00 0.00 83 1016.6
20260505183300 58 257 0.0 4.3 0.00 0.00 0.00 85 1016.6
20260505182300 58 247 0.0 0.0 0.00 0.00 0.00 85 1016.6
20260505180300 57 259 0.0 3.5 0.00 0.00 0.00 86 1016.6
20260505175300 56 183 0.0 0.9 0.00 0.00 0.00 87 1016.6
20260505174300 56 261 0.0 0.9 0.00 0.00 0.00 88 1016.6
20260505172300 55 259 0.0 0.0 0.00 0.00 0.00 89 1016.6
20260505171300 55 266 0.0 0.0 0.00 0.00 0.00 89 1016.6
20260505170300 54 267 0.0 0.0 0.00 0.00 0.00 89 1016.6
20260505165300 54 267 0.0 0.0 0.00 0.00 0.00 89 1016.6
20260505163300 54 266 0.0 0.0 0.00 0.00 0.00 90 1016.6
20260505162300 54 360 0.0 0.0 0.00 0.00 0.00 89 1016.6
20260505161300 53 273 0.0 0.0 0.00 0.00 0.00 89 1016.6
20260505160300 53 360 0.0 0.0 0.00 0.00 0.00 90 1016.6
20260505153300 53 360 0.0 0.0 0.00 0.00 0.00 90 1016.6
20260505152300 53 360 0.0 0.0 0.00 0.00 0.00 90 1016.6
20260505151300 53 360 0.0 0.0 0.00 0.00 0.00 90 1016.6
20260505150300 52 360 0.0 0.0 0.00 0.00 0.00 90 1016.6
20260505140300 52 360 0.0 0.0 0.00 0.00 0.00 89 1016.3
20260505130300 51 360 0.0 0.0 0.00 0.00 0.00 88 1015.9
20260505124300 51 360 0.0 0.0 0.00 0.00 0.00 88 1015.9
20260505123300 51 360 0.0 0.0 0.00 0.00 0.00 88 1015.9
20260505121300 52 360 0.0 0.0 0.00 0.00 0.00 88 1015.6
20260505120300 52 360 0.0 0.0 0.00 0.00 0.00 88 1015.6
20260505115300 52 360 0.0 0.0 0.00 0.00 0.00 88 1015.6
20260505114300 52 360 0.0 0.0 0.00 0.00 0.00 88 1015.6
20260505113300 52 360 0.0 1.7 0.00 0.00 0.00 88 1015.6
20260505112300 52 360 0.0 1.7 0.00 0.00 0.00 88 1015.6
20260505111300 52 360 0.0 0.0 0.00 0.00 0.00 88 1015.6
20260505110300 52 360 0.0 0.0 0.00 0.00 0.00 88 1015.6
20260505101300 52 360 0.0 1.7 0.00 0.00 0.00 87 1015.2
20260505100300 52 360 0.0 1.7 0.00 0.00 0.00 87 1015.2
20260505095300 53 360 0.0 1.7 0.00 0.00 0.00 87 1015.2
20260505094300 53 360 0.0 2.6 0.00 0.00 0.00 86 1015.2
20260505093300 53 360 0.0 3.5 0.00 0.00 0.00 87 1015.2
20260505092300 53 360 1.7 3.5 0.00 0.00 0.00 86 1015.2
20260505091300 53 360 0.0 3.5 0.00 0.00 0.00 86 1015.2
20260505090300 53 360 0.0 0.0 0.00 0.00 0.00 86 1015.2
20260505085300 53 360 0.0 0.9 0.00 0.00 0.00 86 1014.9
20260505084300 53 360 0.0 0.0 0.00 0.00 0.00 85 1014.9
20260505083300 53 360 0.0 0.9 0.00 0.00 0.00 85 1015.2
20260505082300 53 360 0.0 2.6 0.00 0.00 0.00 85 1015.2
20260505081300 54 360 0.9 4.3 0.00 0.00 0.00 85 1015.2
20260505080300 54 360 0.0 3.5 0.00 0.00 0.00 84 1015.2
20260505075300 54 360 0.0 0.0 0.00 0.00 0.00 84 1015.2
20260505074300 54 360 0.0 3.5 0.00 0.00 0.00 84 1015.2
20260505072300 54 360 0.0 4.3 0.00 0.00 0.00 84 1015.2
20260505071300 54 360 0.0 2.6 0.00 0.00 0.00 83 1015.2
20260505070300 54 260 0.0 5.2 0.00 0.00 0.00 83 1014.9
20260505064300 55 360 0.0 1.7 0.00 0.00 0.00 83 1014.9
20260505063300 55 273 0.0 0.0 0.00 0.00 0.00 83 1014.9
20260505062300 55 360 0.0 0.0 0.00 0.00 0.00 83 1014.9
20260505061300 55 360 0.0 0.0 0.00 0.00 0.00 83 1014.9
20260505060300 55 360 0.0 0.0 0.00 0.00 0.00 83 1014.9
20260505055300 55 282 0.0 0.0 0.00 0.00 0.00 82 1014.9
20260505054300 55 360 0.0 0.0 0.00 0.00 0.00 82 1014.9
20260505053300 55 306 0.0 2.6 0.00 0.00 0.00 82 1014.6
20260505052300 55 266 0.0 1.7 0.00 0.00 0.00 81 1014.6
20260505051300 56 360 0.0 0.0 0.00 0.00 0.00 81 1014.6
20260505050300 56 279 0.0 5.2 0.00 0.00 0.00 81 1014.6
20260505041300 57 271 0.0 5.2 0.00 0.00 0.00 79 1013.9
20260505040300 57 275 0.0 5.2 0.00 0.00 0.00 78 1013.9
20260505035300 58 280 0.9 8.7 0.00 0.00 0.00 78 1013.5
20260505034300 58 264 0.0 5.2 0.00 0.00 0.00 77 1013.5
20260505033300 58 360 1.7 9.6 0.00 0.00 0.00 77 1013.5
20260505032300 59 275 0.0 8.7 0.00 0.00 0.00 76 1013.2
20260505030300 60 291 0.0 7.8 0.00 0.00 0.00 73 1012.9
20260505025300 61 300 3.5 8.7 0.00 0.00 0.00 72 1012.5
20260505024300 62 273 0.0 7.8 0.00 0.00 0.00 70 1012.5
20260505023300 64 286 0.0 9.6 0.00 0.00 0.00 69 1012.2
20260505022300 65 267 2.6 9.6 0.00 0.00 0.00 68 1012.2
20260505021300 65 270 1.7 8.7 0.00 0.00 0.00 67 1012.2
20260505020300 66 284 0.0 9.6 0.00 0.00 0.00 66 1012.2
20260505015300 67 271 0.0 5.2 0.00 0.00 0.00 66 1012.2
20260505014300 67 281 0.0 7.0 0.00 0.00 0.00 65 1012.2
20260505013300 68 292 0.0 10.4 0.00 0.00 0.00 66 1011.9
20260505012300 68 249 0.9 10.4 0.00 0.00 0.00 65 1011.9
20260505011300 68 311 0.0 9.6 0.00 0.00 0.00 65 1012.2
20260505010300 68 285 1.7 10.4 0.00 0.00 0.00 65 1012.2
20260505005300 69 270 0.0 12.2 0.00 0.00 0.00 64 1012.2
20260505002300 69 248 0.0 9.6 0.00 0.00 0.00 65 1011.9
20260505001300 69 314 0.0 7.8 0.00 0.00 0.00 65 1011.9
20260505000300 69 253 0.0 9.6 0.00 0.00 0.00 66 1012.2
20260504235300 69 269 0.0 6.1 0.00 0.00 0.00 65 1012.2
20260504234300 69 308 0.0 1.7 0.00 0.00 0.00 64 1012.2
20260504233300 69 246 0.0 7.0 0.00 0.00 0.00 66 1012.2
20260504232300 69 284 0.0 7.0 0.00 0.00 0.00 67 1012.2
20260504231300 68 283 0.0 3.5 0.00 0.00 0.00 68 1012.5
20260504225300 67 292 0.0 7.0 0.00 0.00 0.00 69 1012.9
20260504224300 67 269 0.0 7.0 0.00 0.00 0.00 69 1012.9
20260504223300 67 261 0.0 7.0 0.00 0.00 0.00 71 1013.2
20260504222300 66 259 0.9 7.0 0.00 0.00 0.00 72 1013.2
20260504221300 65 244 0.0 9.6 0.00 0.00 0.00 73 1013.5
20260504220300 65 252 0.9 9.6 0.00 0.00 0.00 74 1013.5
20260504214300 63 246 0.0 2.6 0.00 0.00 0.00 75 1013.9
20260504213300 63 234 0.0 2.6 0.00 0.00 0.00 76 1013.9
20260504211300 62 205 0.0 3.5 0.00 0.00 0.00 77 1013.9
20260504210300 61 259 0.0 1.7 0.00 0.00 0.00 78 1013.9
20260504204300 61 360 0.0 5.2 0.00 0.00 0.00 79 1014.2
20260504203300 60 360 0.0 0.9 0.00 0.00 0.00 79 1014.2
20260504202300 60 360 0.0 7.8 0.00 0.00 0.00 80 1014.2
20260504201300 59 360 0.0 3.5 0.00 0.00 0.00 79 1014.2